| time (UTC) | temp F | wind direction | speed knots | gust knots | rain 1hr in | rain 24hr in | rain mn in | humidity % | barometer mb |
| 20260507081652 | 50 | 339 | 6.1 | 15.6 | 0.00 | 0.00 | 0.00 | 91 | 1006.8 |
| 20260507081143 | 50 | 290 | 2.6 | 7.0 | 0.00 | 0.00 | 0.00 | 90 | 1007.0 |
| 20260507080640 | 50 | 307 | 3.5 | 8.7 | 0.00 | 0.00 | 0.00 | 90 | 1007.2 |
| 20260507080136 | 50 | 317 | 4.3 | 6.1 | 0.00 | 0.00 | 0.00 | 91 | 1007.1 |
| 20260507075631 | 50 | 281 | 3.5 | 6.1 | 0.00 | 0.00 | 0.00 | 91 | 1007.1 |
| 20260507075128 | 50 | 315 | 7.8 | 11.3 | 0.00 | 0.00 | 0.00 | 91 | 1006.9 |
| 20260507074625 | 50 | 321 | 5.2 | 7.8 | 0.00 | 0.00 | 0.00 | 91 | 1006.7 |
| 20260507074123 | 50 | 325 | 6.1 | 7.0 | 0.00 | 0.00 | 0.00 | 91 | 1006.8 |
| 20260507073619 | 50 | 317 | 2.6 | 6.1 | 0.00 | 0.00 | 0.00 | 91 | 1006.7 |
| 20260507073115 | 50 | 310 | 3.5 | 7.0 | 0.00 | 0.00 | 0.00 | 91 | 1006.6 |
| 20260507072613 | 50 | 323 | 5.2 | 6.1 | 0.00 | 0.00 | 0.00 | 91 | 1006.6 |
| 20260507072110 | 50 | 304 | 4.3 | 7.8 | 0.00 | 0.00 | 0.00 | 91 | 1006.7 |
| 20260507071607 | 50 | 335 | 2.6 | 7.0 | 0.00 | 0.00 | 0.00 | 91 | 1007.1 |
| 20260507071103 | 50 | 330 | 5.2 | 5.2 | 0.00 | 0.00 | 0.00 | 91 | 1006.6 |
| 20260507070601 | 50 | 329 | 4.3 | 8.7 | 0.00 | 0.00 | 0.00 | 91 | 1006.6 |
| 20260507070057 | 50 | 307 | 2.6 | 7.8 | 0.00 | 0.00 | 0.00 | 90 | 1006.7 |
| 20260507065554 | 50 | 315 | 6.1 | 7.0 | 0.00 | 0.00 | 0.00 | 90 | 1006.5 |
| 20260507065051 | 51 | 243 | 0.0 | 9.6 | 0.00 | 0.00 | 0.00 | 91 | 1006.8 |
| 20260507064549 | 50 | 229 | 1.7 | 3.5 | 0.00 | 0.00 | 0.00 | 91 | 1006.4 |
| 20260507064047 | 50 | 12 | 0.9 | 9.6 | 0.00 | 0.00 | 0.00 | 91 | 1006.5 |
| 20260507063544 | 51 | 315 | 1.7 | 6.1 | 0.00 | 0.00 | 0.00 | 91 | 1006.3 |
| 20260507063041 | 51 | 274 | 0.0 | 7.0 | 0.00 | 0.00 | 0.00 | 91 | 1006.2 |
| 20260507062538 | 51 | 259 | 2.6 | 6.1 | 0.00 | 0.00 | 0.00 | 91 | 1006.0 |
| 20260507062035 | 51 | 339 | 3.5 | 9.6 | 0.00 | 0.00 | 0.00 | 91 | 1006.3 |
| 20260507061533 | 51 | 315 | 8.7 | 8.7 | 0.00 | 0.00 | 0.00 | 91 | 1006.2 |
| 20260507061031 | 51 | 331 | 2.6 | 6.1 | 0.00 | 0.00 | 0.00 | 91 | 1006.3 |
| 20260507060528 | 51 | 296 | 2.6 | 5.2 | 0.00 | 0.00 | 0.00 | 91 | 1006.5 |
| 20260507060025 | 51 | 319 | 5.2 | 7.0 | 0.00 | 0.00 | 0.00 | 91 | 1006.7 |
| 20260507055520 | 51 | 289 | 3.5 | 8.7 | 0.00 | 0.00 | 0.00 | 92 | 1006.6 |
| 20260507055016 | 51 | 357 | 6.1 | 10.4 | 0.00 | 0.00 | 0.00 | 92 | 1006.6 |
| 20260507054513 | 52 | 262 | 2.6 | 9.6 | 0.00 | 0.00 | 0.00 | 93 | 1006.6 |
| 20260507054010 | 52 | 297 | 4.3 | 7.0 | 0.00 | 0.00 | 0.00 | 92 | 1006.7 |
| 20260507053508 | 52 | 350 | 2.6 | 7.0 | 0.00 | 0.00 | 0.00 | 93 | 1006.7 |
| 20260507053006 | 52 | 306 | 4.3 | 7.0 | 0.00 | 0.00 | 0.00 | 93 | 1006.7 |
| 20260507052503 | 52 | 347 | 2.6 | 5.2 | 0.00 | 0.00 | 0.00 | 94 | 1006.6 |
| 20260507052000 | 53 | 257 | 2.6 | 6.1 | 0.00 | 0.00 | 0.00 | 93 | 1006.3 |
| 20260507051458 | 53 | 351 | 2.6 | 7.0 | 0.00 | 0.00 | 0.00 | 93 | 1006.1 |
| 20260507050954 | 53 | 323 | 6.1 | 7.8 | 0.00 | 0.00 | 0.00 | 93 | 1006.3 |
| 20260507050450 | 53 | 315 | 2.6 | 8.7 | 0.00 | 0.00 | 0.00 | 94 | 1006.3 |
| 20260507045948 | 53 | 315 | 6.1 | 7.8 | 0.00 | 0.00 | 0.00 | 93 | 1006.4 |
| 20260507045444 | 53 | 326 | 0.0 | 7.0 | 0.00 | 0.00 | 0.00 | 94 | 1006.3 |
| 20260507044942 | 53 | 266 | 4.3 | 6.1 | 0.00 | 0.00 | 0.00 | 95 | 1006.4 |
| 20260507044438 | 53 | 328 | 5.2 | 6.1 | 0.00 | 0.00 | 0.00 | 95 | 1006.6 |
| 20260507043934 | 54 | 286 | 1.7 | 3.5 | 0.00 | 0.00 | 0.00 | 95 | 1006.7 |
| 20260507043431 | 54 | 320 | 3.5 | 7.8 | 0.00 | 0.00 | 0.00 | 95 | 1006.6 |
| 20260507042927 | 54 | 310 | 4.3 | 8.7 | 0.00 | 0.00 | 0.00 | 95 | 1006.5 |
| 20260507042424 | 53 | 321 | 7.0 | 9.6 | 0.00 | 0.00 | 0.00 | 98 | 1006.4 |
| 20260507041919 | 53 | 293 | 1.7 | 4.3 | 0.00 | 0.00 | 0.00 | 99 | 1006.3 |
| 20260507041416 | 53 | 304 | 3.5 | 9.6 | 0.00 | 0.00 | 0.00 | 99 | 1006.4 |
| 20260507040914 | 53 | 259 | 3.5 | 5.2 | 0.00 | 0.00 | 0.00 | 99 | 1006.3 |
| 20260507040409 | 53 | 290 | 2.6 | 5.2 | 0.00 | 0.00 | 0.00 | 99 | 1006.2 |
| 20260507035905 | 54 | 242 | 2.6 | 7.8 | 0.00 | 0.31 | 0.31 | 99 | 1006.3 |
| 20260507035402 | 55 | 314 | 4.3 | 9.6 | 0.00 | 0.31 | 0.31 | 99 | 1006.2 |
| 20260507034859 | 56 | 270 | 3.5 | 7.0 | 0.00 | 0.31 | 0.31 | 99 | 1005.9 |
| 20260507034356 | 57 | 0 | 2.6 | 7.8 | 0.00 | 0.31 | 0.31 | 99 | 1005.9 |
| 20260507033854 | 57 | 99 | 0.0 | 14.8 | 0.00 | 0.31 | 0.31 | 99 | 1005.9 |
| 20260507033352 | 57 | 314 | 6.1 | 7.0 | 0.00 | 0.31 | 0.31 | 99 | 1005.9 |
| 20260507032848 | 57 | 320 | 2.6 | 10.4 | 0.00 | 0.31 | 0.31 | 99 | 1005.9 |
| 20260507032345 | 57 | 319 | 5.2 | 6.1 | 0.00 | 0.31 | 0.31 | 99 | 1005.9 |
| 20260507031841 | 54 | 344 | 2.6 | 7.0 | 0.00 | 0.31 | 0.31 | 99 | 1006.0 |
| 20260507031338 | 52 | 0 | 0.9 | 2.6 | 0.00 | 0.31 | 0.31 | 99 | 1005.6 |
| 20260507030834 | 51 | 314 | 4.3 | 4.3 | 0.00 | 0.31 | 0.31 | 99 | 1005.6 |
| 20260507030332 | 52 | 172 | 0.0 | 2.6 | 0.00 | 0.31 | 0.31 | 99 | 1005.7 |
| 20260507025829 | 52 | 168 | 0.9 | 3.5 | 0.00 | 0.31 | 0.31 | 99 | 1005.5 |
| 20260507025326 | 52 | 145 | 2.6 | 3.5 | 0.00 | 0.31 | 0.31 | 99 | 1005.6 |
| 20260507024824 | 52 | 158 | 2.6 | 3.5 | 0.00 | 0.31 | 0.31 | 99 | 1005.6 |
| 20260507024321 | 52 | 170 | 1.7 | 4.3 | 0.00 | 0.31 | 0.31 | 99 | 1005.6 |
| 20260507023817 | 51 | 128 | 1.7 | 2.6 | 0.00 | 0.31 | 0.31 | 99 | 1005.5 |
| 20260507023313 | 51 | 194 | 0.0 | 2.6 | 0.00 | 0.31 | 0.31 | 99 | 1005.7 |
| 20260507022811 | 51 | 210 | 1.7 | 2.6 | 0.00 | 0.31 | 0.31 | 99 | 1005.7 |
| 20260507022307 | 52 | 68 | 0.0 | 5.2 | 0.00 | 0.31 | 0.31 | 99 | 1005.9 |
| 20260507021803 | 51 | 73 | 1.7 | 1.7 | 0.00 | 0.31 | 0.31 | 99 | 1005.8 |
| 20260507021259 | 51 | 35 | 0.9 | 2.6 | 0.00 | 0.31 | 0.31 | 99 | 1005.7 |
| 20260507020757 | 52 | 0 | 0.0 | 2.6 | 0.00 | 0.31 | 0.31 | 99 | 1005.9 |
| 20260507020253 | 52 | 75 | 0.9 | 1.7 | 0.00 | 0.31 | 0.31 | 99 | 1006.0 |
| 20260507015751 | 52 | 90 | 0.0 | 1.7 | 0.00 | 0.31 | 0.31 | 99 | 1006.1 |
| 20260507015248 | 52 | 35 | 0.0 | 2.6 | 0.00 | 0.31 | 0.31 | 99 | 1006.0 |
| 20260507014745 | 53 | 157 | 0.0 | 2.6 | 0.00 | 0.31 | 0.31 | 99 | 1006.2 |
| 20260507014241 | 53 | 182 | 2.6 | 4.3 | 0.00 | 0.31 | 0.31 | 99 | 1006.1 |
| 20260507013738 | 54 | 203 | 2.6 | 4.3 | 0.00 | 0.31 | 0.31 | 99 | 1006.1 |
| 20260507013236 | 54 | 195 | 1.7 | 2.6 | 0.00 | 0.31 | 0.31 | 99 | 1006.3 |
| 20260507012733 | 54 | 182 | 2.6 | 4.3 | 0.00 | 0.31 | 0.31 | 99 | 1006.0 |
| 20260507012228 | 54 | 217 | 3.5 | 5.2 | 0.00 | 0.31 | 0.31 | 99 | 1006.3 |
| 20260507011726 | 54 | 221 | 4.3 | 6.1 | 0.02 | 0.31 | 0.31 | 99 | 1006.3 |
| 20260507011222 | 54 | 224 | 7.0 | 7.0 | 0.02 | 0.31 | 0.31 | 99 | 1006.3 |
| 20260507010722 | 54 | 152 | 1.7 | 7.0 | 0.00 | 0.31 | 0.31 | 99 | 1006.1 |
| 20260507010218 | 54 | 194 | 5.2 | 7.0 | 0.00 | 0.31 | 0.31 | 99 | 1006.2 |
| 20260507005716 | 54 | 225 | 5.2 | 10.4 | 0.00 | 0.31 | 0.31 | 99 | 1006.3 |
| 20260507005212 | 54 | 230 | 6.1 | 10.4 | 0.00 | 0.31 | 0.31 | 99 | 1006.3 |
| 20260507004708 | 54 | 222 | 4.3 | 9.6 | 0.00 | 0.31 | 0.31 | 99 | 1006.4 |
| 20260507004206 | 54 | 229 | 7.8 | 15.6 | 0.00 | 0.31 | 0.31 | 99 | 1006.3 |
| 20260507003702 | 54 | 203 | 12.2 | 13.0 | 0.00 | 0.31 | 0.31 | 99 | 1006.1 |
| 20260507003158 | 54 | 266 | 4.3 | 7.8 | 0.00 | 0.31 | 0.31 | 99 | 1006.2 |
| 20260507002654 | 54 | 160 | 13.0 | 14.8 | 0.00 | 0.31 | 0.31 | 99 | 1006.4 |
| 20260507002150 | 54 | 220 | 8.7 | 11.3 | 0.00 | 0.31 | 0.31 | 99 | 1006.3 |
| 20260507001647 | 54 | 225 | 6.1 | 11.3 | 0.02 | 0.31 | 0.31 | 99 | 1006.2 |
| 20260507001144 | 54 | 201 | 3.5 | 7.8 | 0.02 | 0.31 | 0.31 | 99 | 1006.2 |
| 20260507000641 | 54 | 220 | 4.3 | 10.4 | 0.00 | 0.30 | 0.30 | 99 | 1006.2 |
| 20260507000136 | 54 | 190 | 4.3 | 10.4 | 0.02 | 0.30 | 0.30 | 99 | 1006.1 |
| 20260506235634 | 54 | 243 | 2.6 | 13.0 | 0.12 | 0.30 | 0.30 | 99 | 1006.1 |
| 20260506235133 | 54 | 195 | 6.1 | 8.7 | 0.14 | 0.30 | 0.30 | 99 | 1005.9 |
| 20260506234631 | 54 | 203 | 6.1 | 10.4 | 0.07 | 0.28 | 0.28 | 99 | 1006.2 |
| 20260506234128 | 54 | 220 | 6.1 | 11.3 | 0.02 | 0.28 | 0.28 | 99 | 1006.0 |
| 20260506233625 | 54 | 235 | 5.2 | 12.2 | 0.05 | 0.27 | 0.27 | 99 | 1006.2 |
| 20260506233122 | 54 | 213 | 6.1 | 10.4 | 0.05 | 0.27 | 0.27 | 99 | 1006.2 |
| 20260506232618 | 54 | 190 | 5.2 | 11.3 | 0.05 | 0.26 | 0.26 | 99 | 1006.2 |
| 20260506232114 | 54 | 216 | 5.2 | 9.6 | 0.05 | 0.26 | 0.26 | 99 | 1006.3 |
| 20260506231611 | 54 | 209 | 8.7 | 14.8 | 0.02 | 0.26 | 0.26 | 99 | 1006.2 |
| 20260506231109 | 54 | 212 | 9.6 | 12.2 | 0.02 | 0.25 | 0.25 | 99 | 1006.1 |
| 20260506230606 | 54 | 225 | 7.0 | 14.8 | 0.02 | 0.25 | 0.25 | 99 | 1006.2 |
| 20260506230103 | 54 | 173 | 7.8 | 17.4 | 0.02 | 0.25 | 0.25 | 99 | 1006.3 |
| 20260506225559 | 54 | 196 | 3.5 | 14.8 | 0.02 | 0.25 | 0.25 | 99 | 1006.4 |
| 20260506225055 | 54 | 193 | 6.1 | 10.4 | 0.00 | 0.24 | 0.24 | 99 | 1006.3 |
| 20260506224553 | 54 | 203 | 8.7 | 13.0 | 0.02 | 0.24 | 0.24 | 99 | 1006.3 |
| 20260506224049 | 54 | 235 | 7.8 | 14.8 | 0.05 | 0.24 | 0.24 | 99 | 1006.4 |
| 20260506223545 | 54 | 188 | 6.1 | 12.2 | 0.05 | 0.24 | 0.24 | 99 | 1006.5 |
| 20260506223042 | 54 | 196 | 5.2 | 8.7 | 0.07 | 0.24 | 0.24 | 99 | 1006.5 |
| 20260506222539 | 54 | 211 | 5.2 | 10.4 | 0.05 | 0.23 | 0.23 | 99 | 1006.5 |
| 20260506222035 | 54 | 189 | 3.5 | 8.7 | 0.05 | 0.22 | 0.22 | 99 | 1006.6 |
| 20260506221533 | 54 | 208 | 6.1 | 16.5 | 0.07 | 0.22 | 0.22 | 99 | 1006.6 |
| 20260506221031 | 55 | 185 | 7.8 | 10.4 | 0.02 | 0.22 | 0.22 | 99 | 1006.7 |
| 20260506220526 | 55 | 202 | 5.2 | 13.9 | 0.00 | 0.21 | 0.21 | 99 | 1006.8 |
| 20260506220022 | 55 | 191 | 7.8 | 10.4 | 0.02 | 0.21 | 0.21 | 99 | 1006.9 |
| 20260506215519 | 55 | 180 | 4.3 | 16.5 | 0.02 | 0.21 | 0.21 | 99 | 1006.8 |
| 20260506215015 | 55 | 180 | 6.1 | 19.1 | 0.02 | 0.21 | 0.21 | 99 | 1007.2 |
| 20260506214512 | 55 | 197 | 5.2 | 12.2 | 0.05 | 0.20 | 0.20 | 99 | 1007.0 |
| 20260506214009 | 55 | 221 | 7.0 | 13.0 | 0.07 | 0.20 | 0.20 | 99 | 1006.9 |
| 20260506213507 | 55 | 232 | 5.2 | 13.0 | 0.05 | 0.20 | 0.20 | 99 | 1007.1 |
| 20260506213004 | 55 | 232 | 8.7 | 11.3 | 0.02 | 0.19 | 0.19 | 99 | 1007.2 |
| 20260506212500 | 55 | 194 | 10.4 | 11.3 | 0.05 | 0.19 | 0.19 | 99 | 1007.2 |
| 20260506211955 | 55 | 189 | 10.4 | 14.8 | 0.07 | 0.19 | 0.19 | 99 | 1007.3 |
| 20260506211451 | 55 | 208 | 4.3 | 10.4 | 0.02 | 0.18 | 0.18 | 99 | 1007.4 |
| 20260506210949 | 56 | 208 | 11.3 | 17.4 | 0.05 | 0.18 | 0.18 | 99 | 1007.4 |
| 20260506210445 | 56 | 213 | 9.6 | 11.3 | 0.05 | 0.17 | 0.17 | 99 | 1007.4 |
| 20260506205942 | 56 | 206 | 7.8 | 17.4 | 0.05 | 0.17 | 0.17 | 99 | 1007.3 |
| 20260506205438 | 56 | 244 | 15.6 | 25.2 | 0.09 | 0.17 | 0.17 | 99 | 1007.3 |
| 20260506204934 | 56 | 183 | 11.3 | 19.1 | 0.12 | 0.16 | 0.16 | 98 | 1007.3 |
| 20260506204432 | 56 | 230 | 8.7 | 14.8 | 0.12 | 0.15 | 0.15 | 98 | 1007.3 |
| 20260506203930 | 57 | 255 | 7.8 | 16.5 | 0.14 | 0.14 | 0.14 | 98 | 1007.5 |
| 20260506203427 | 57 | 186 | 7.0 | 12.2 | 0.21 | 0.13 | 0.13 | 97 | 1007.4 |
| 20260506202923 | 57 | 242 | 8.7 | 16.5 | 0.19 | 0.12 | 0.12 | 97 | 1007.4 |
| 20260506202421 | 57 | 216 | 12.2 | 20.9 | 0.12 | 0.09 | 0.09 | 97 | 1007.6 |
| 20260506201917 | 57 | 214 | 7.0 | 12.2 | 0.14 | 0.08 | 0.08 | 96 | 1007.5 |
| 20260506201415 | 57 | 212 | 8.7 | 13.9 | 0.07 | 0.07 | 0.07 | 96 | 1007.3 |
| 20260506200911 | 57 | 203 | 5.2 | 17.4 | 0.07 | 0.06 | 0.06 | 96 | 1007.3 |
| 20260506200407 | 57 | 236 | 6.1 | 15.6 | 0.07 | 0.06 | 0.06 | 95 | 1007.1 |
| 20260506195904 | 57 | 192 | 7.0 | 17.4 | 0.05 | 0.05 | 0.05 | 95 | 1007.3 |
| 20260506195401 | 58 | 214 | 14.8 | 15.6 | 0.05 | 0.04 | 0.04 | 95 | 1007.2 |
| 20260506194858 | 59 | 222 | 6.1 | 11.3 | 0.05 | 0.04 | 0.04 | 95 | 1007.3 |
| 20260506194354 | 59 | 226 | 7.8 | 8.7 | 0.07 | 0.04 | 0.04 | 95 | 1007.4 |
| 20260506193852 | 59 | 214 | 4.3 | 6.1 | 0.05 | 0.03 | 0.03 | 95 | 1007.4 |
| 20260506193349 | 59 | 222 | 5.2 | 8.7 | 0.07 | 0.02 | 0.02 | 95 | 1007.6 |
| 20260506192845 | 59 | 202 | 4.3 | 8.7 | 0.05 | 0.02 | 0.02 | 94 | 1007.6 |
| 20260506192342 | 58 | 234 | 4.3 | 6.1 | 0.02 | 0.01 | 0.01 | 92 | 1007.7 |
| 20260506191839 | 59 | 253 | 13.0 | 13.0 | 0.05 | 0.01 | 0.01 | 91 | 1007.5 |
| 20260506191335 | 60 | 219 | 4.3 | 22.6 | 0.02 | 0.01 | 0.01 | 89 | 1007.6 |
| 20260506190832 | 60 | 230 | 15.6 | 19.1 | 0.02 | 0.00 | 0.00 | 89 | 1007.3 |
| 20260506190328 | 60 | 221 | 7.8 | 15.6 | 0.00 | 0.00 | 0.00 | 88 | 1007.2 |
| 20260506185825 | 60 | 200 | 7.0 | 29.5 | 0.00 | 0.00 | 0.00 | 87 | 1007.2 |
| 20260506185322 | 60 | 215 | 4.3 | 14.8 | 0.00 | 0.00 | 0.00 | 87 | 1007.3 |
| 20260506184819 | 60 | 200 | 7.8 | 17.4 | 0.00 | 0.00 | 0.00 | 86 | 1007.3 |
| 20260506184317 | 60 | 214 | 10.4 | 22.6 | 0.00 | 0.00 | 0.00 | 86 | 1007.4 |
| 20260506183814 | 60 | 213 | 14.8 | 17.4 | 0.00 | 0.00 | 0.00 | 87 | 1007.2 |
| 20260506183309 | 58 | 218 | 7.8 | 18.2 | 0.00 | 0.00 | 0.00 | 89 | 1007.4 |
| 20260506182806 | 57 | 209 | 9.6 | 15.6 | 0.00 | 0.00 | 0.00 | 89 | 1007.5 |
| 20260506182306 | 56 | 188 | 13.0 | 13.9 | 0.00 | 0.00 | 0.00 | 90 | 1007.6 |
| 20260506181801 | 56 | 206 | 7.8 | 11.3 | 0.00 | 0.00 | 0.00 | 89 | 1007.7 |
| 20260506181259 | 57 | 180 | 7.8 | 14.8 | 0.00 | 0.00 | 0.00 | 88 | 1007.7 |
| 20260506180756 | 58 | 221 | 4.3 | 18.2 | 0.00 | 0.00 | 0.00 | 87 | 1007.7 |
| 20260506180251 | 58 | 189 | 14.8 | 22.6 | 0.00 | 0.00 | 0.00 | 87 | 1007.7 |
| 20260506175748 | 57 | 207 | 9.6 | 13.9 | 0.00 | 0.00 | 0.00 | 88 | 1007.9 |
| 20260506175245 | 57 | 199 | 12.2 | 15.6 | 0.00 | 0.00 | 0.00 | 88 | 1007.8 |
| 20260506174743 | 58 | 197 | 10.4 | 21.7 | 0.00 | 0.00 | 0.00 | 87 | 1007.8 |
| 20260506174239 | 58 | 228 | 9.6 | 18.2 | 0.00 | 0.00 | 0.00 | 88 | 1007.7 |
| 20260506173737 | 57 | 190 | 8.7 | 14.8 | 0.00 | 0.00 | 0.00 | 88 | 1007.8 |
| 20260506173233 | 57 | 191 | 3.5 | 18.2 | 0.00 | 0.00 | 0.00 | 88 | 1007.8 |
| 20260506172730 | 57 | 212 | 5.2 | 19.1 | 0.00 | 0.00 | 0.00 | 88 | 1008.1 |
| 20260506172226 | 57 | 189 | 9.6 | 16.5 | 0.00 | 0.00 | 0.00 | 88 | 1007.9 |
| 20260506171719 | 57 | 183 | 9.6 | 19.1 | 0.00 | 0.00 | 0.00 | 88 | 1008.1 |
| 20260506171216 | 57 | 230 | 6.1 | 18.2 | 0.00 | 0.00 | 0.00 | 88 | 1008.1 |
| 20260506170714 | 57 | 195 | 8.7 | 13.9 | 0.00 | 0.00 | 0.00 | 87 | 1008.1 |
| 20260506170210 | 57 | 173 | 7.0 | 15.6 | 0.00 | 0.00 | 0.00 | 88 | 1008.1 |
| 20260506165709 | 56 | 192 | 10.4 | 17.4 | 0.00 | 0.00 | 0.00 | 88 | 1008.4 |
| 20260506165205 | 56 | 196 | 7.8 | 11.3 | 0.00 | 0.00 | 0.00 | 89 | 1008.4 |
| 20260506164702 | 56 | 202 | 9.6 | 16.5 | 0.00 | 0.00 | 0.00 | 88 | 1008.4 |
| 20260506164159 | 57 | 227 | 6.1 | 18.2 | 0.00 | 0.00 | 0.00 | 89 | 1008.5 |
| 20260506163656 | 57 | 190 | 5.2 | 13.0 | 0.00 | 0.00 | 0.00 | 88 | 1008.4 |
| 20260506163151 | 57 | 180 | 12.2 | 17.4 | 0.00 | 0.00 | 0.00 | 87 | 1008.6 |
| 20260506162647 | 58 | 193 | 7.8 | 13.9 | 0.00 | 0.00 | 0.00 | 87 | 1008.6 |
| 20260506162145 | 59 | 209 | 7.0 | 11.3 | 0.00 | 0.00 | 0.00 | 87 | 1008.7 |
| 20260506161642 | 59 | 184 | 7.0 | 14.8 | 0.00 | 0.00 | 0.00 | 87 | 1008.8 |
| 20260506161139 | 59 | 206 | 8.7 | 18.2 | 0.00 | 0.00 | 0.00 | 86 | 1009.0 |
| 20260506160636 | 58 | 204 | 7.8 | 14.8 | 0.00 | 0.00 | 0.00 | 87 | 1009.1 |
| 20260506160133 | 59 | 223 | 6.1 | 9.6 | 0.00 | 0.00 | 0.00 | 87 | 1009.1 |
| 20260506155632 | 59 | 203 | 7.8 | 13.0 | 0.00 | 0.00 | 0.00 | 87 | 1009.1 |
| 20260506155128 | 59 | 184 | 12.2 | 14.8 | 0.00 | 0.00 | 0.00 | 86 | 1009.3 |
| 20260506153230 | 60 | 225 | 7.8 | 15.6 | 0.00 | 0.00 | 0.00 | 86 | 1009.5 |
| 20260506152727 | 60 | 196 | 11.3 | 16.5 | 0.00 | 0.00 | 0.00 | 86 | 1009.5 |
| 20260506152225 | 60 | 218 | 9.6 | 14.8 | 0.00 | 0.00 | 0.00 | 85 | 1009.4 |
| 20260506151724 | 62 | 219 | 11.3 | 17.4 | 0.00 | 0.00 | 0.00 | 84 | 1009.5 |
| 20260506151220 | 61 | 211 | 10.4 | 14.8 | 0.00 | 0.00 | 0.00 | 85 | 1009.6 |
| 20260506150716 | 60 | 204 | 10.4 | 14.8 | 0.00 | 0.00 | 0.00 | 86 | 1009.7 |
| 20260506150213 | 60 | 232 | 10.4 | 17.4 | 0.00 | 0.00 | 0.00 | 86 | 1009.6 |
| 20260506145711 | 60 | 180 | 4.3 | 15.6 | 0.00 | 0.00 | 0.00 | 86 | 1009.6 |
| 20260506145207 | 61 | 208 | 7.8 | 9.6 | 0.00 | 0.00 | 0.00 | 85 | 1009.5 |
| 20260506144704 | 61 | 185 | 7.0 | 16.5 | 0.00 | 0.00 | 0.00 | 85 | 1009.4 |
| 20260506144201 | 60 | 193 | 4.3 | 16.5 | 0.00 | 0.00 | 0.00 | 88 | 1009.4 |
| 20260506143659 | 60 | 217 | 7.0 | 9.6 | 0.00 | 0.00 | 0.00 | 88 | 1009.4 |
| 20260506143156 | 59 | 176 | 7.0 | 13.0 | 0.00 | 0.00 | 0.00 | 88 | 1009.3 |
| 20260506142655 | 58 | 196 | 7.0 | 9.6 | 0.00 | 0.00 | 0.00 | 89 | 1009.3 |
| 20260506142152 | 57 | 189 | 7.0 | 10.4 | 0.00 | 0.00 | 0.00 | 90 | 1009.1 |
| 20260506141650 | 57 | 194 | 9.6 | 11.3 | 0.00 | 0.00 | 0.00 | 91 | 1009.3 |
| 20260506141148 | 56 | 176 | 5.2 | 13.0 | 0.00 | 0.00 | 0.00 | 91 | 1009.3 |
| 20260506140645 | 57 | 203 | 9.6 | 11.3 | 0.00 | 0.00 | 0.00 | 92 | 1009.2 |
| 20260506140142 | 56 | 183 | 6.1 | 13.9 | 0.00 | 0.00 | 0.00 | 92 | 1009.3 |
| 20260506135639 | 56 | 168 | 7.8 | 15.6 | 0.00 | 0.00 | 0.00 | 92 | 1009.4 |
| 20260506135135 | 56 | 187 | 8.7 | 10.4 | 0.00 | 0.00 | 0.00 | 91 | 1009.5 |
| 20260506134632 | 57 | 188 | 6.1 | 9.6 | 0.00 | 0.00 | 0.00 | 91 | 1009.7 |
| 20260506134128 | 57 | 184 | 4.3 | 8.7 | 0.00 | 0.00 | 0.00 | 91 | 1009.8 |
| 20260506133625 | 57 | 193 | 4.3 | 6.1 | 0.00 | 0.00 | 0.00 | 92 | 1009.6 |
| 20260506133122 | 56 | 192 | 5.2 | 8.7 | 0.00 | 0.00 | 0.00 | 93 | 1009.7 |
| 20260506132620 | 56 | 182 | 5.2 | 7.8 | 0.00 | 0.00 | 0.00 | 92 | 1009.7 |
| 20260506132116 | 57 | 193 | 7.0 | 10.4 | 0.00 | 0.00 | 0.00 | 91 | 1009.7 |
| 20260506131614 | 56 | 167 | 4.3 | 8.7 | 0.00 | 0.00 | 0.00 | 91 | 1009.7 |
| 20260506131110 | 57 | 169 | 5.2 | 10.4 | 0.00 | 0.00 | 0.00 | 91 | 1009.6 |
| 20260506130607 | 57 | 220 | 2.6 | 6.1 | 0.00 | 0.00 | 0.00 | 91 | 1009.7 |
| 20260506130104 | 57 | 182 | 5.2 | 9.6 | 0.00 | 0.00 | 0.00 | 92 | 1009.7 |
| 20260506125603 | 56 | 193 | 6.1 | 9.6 | 0.00 | 0.00 | 0.00 | 92 | 1009.4 |
| 20260506125100 | 55 | 122 | 3.5 | 11.3 | 0.00 | 0.00 | 0.00 | 93 | 1009.5 |
| 20260506124558 | 56 | 150 | 4.3 | 12.2 | 0.00 | 0.00 | 0.00 | 92 | 1009.5 |
| 20260506124055 | 55 | 185 | 7.8 | 9.6 | 0.00 | 0.00 | 0.00 | 92 | 1009.7 |
| 20260506123553 | 55 | 183 | 7.0 | 7.8 | 0.00 | 0.00 | 0.00 | 92 | 1009.7 |
| 20260506123051 | 55 | 182 | 8.7 | 8.7 | 0.00 | 0.00 | 0.00 | 94 | 1009.7 |
| 20260506122547 | 53 | 177 | 10.4 | 10.4 | 0.00 | 0.00 | 0.00 | 94 | 1009.7 |
| 20260506122046 | 53 | 198 | 5.2 | 11.3 | 0.00 | 0.00 | 0.00 | 94 | 1009.6 |
| 20260506121543 | 53 | 185 | 5.2 | 10.4 | 0.00 | 0.00 | 0.00 | 94 | 1009.5 |
| 20260506121039 | 53 | 180 | 3.5 | 8.7 | 0.00 | 0.00 | 0.00 | 94 | 1009.8 |
| 20260506120537 | 53 | 207 | 5.2 | 9.6 | 0.00 | 0.00 | 0.00 | 94 | 1010.0 |
| 20260506120034 | 54 | 177 | 6.1 | 8.7 | 0.00 | 0.00 | 0.00 | 94 | 1009.8 |
| 20260506115532 | 54 | 191 | 5.2 | 6.1 | 0.00 | 0.00 | 0.00 | 94 | 1010.2 |
| 20260506115030 | 54 | 175 | 4.3 | 5.2 | 0.00 | 0.00 | 0.00 | 94 | 1009.9 |
| 20260506114527 | 53 | 182 | 3.5 | 5.2 | 0.00 | 0.00 | 0.00 | 94 | 1010.0 |
| 20260506114026 | 54 | 178 | 3.5 | 6.1 | 0.00 | 0.00 | 0.00 | 94 | 1010.2 |
| 20260506113523 | 53 | 181 | 6.1 | 6.1 | 0.00 | 0.00 | 0.00 | 94 | 1010.0 |
| 20260506113020 | 53 | 207 | 3.5 | 8.7 | 0.00 | 0.00 | 0.00 | 94 | 1010.2 |
| 20260506112517 | 53 | 180 | 1.7 | 6.1 | 0.00 | 0.00 | 0.00 | 94 | 1010.2 |
| 20260506112014 | 53 | 170 | 1.7 | 6.1 | 0.00 | 0.00 | 0.00 | 94 | 1010.0 |
| 20260506111512 | 53 | 185 | 4.3 | 7.0 | 0.00 | 0.00 | 0.00 | 94 | 1009.8 |
| 20260506111009 | 52 | 154 | 2.6 | 6.1 | 0.00 | 0.00 | 0.00 | 94 | 1010.1 |
| 20260506110507 | 52 | 127 | 2.6 | 5.2 | 0.00 | 0.00 | 0.00 | 95 | 1010.2 |
| 20260506110004 | 52 | 187 | 2.6 | 5.2 | 0.00 | 0.00 | 0.00 | 95 | 1010.1 |
| 20260506105459 | 52 | 183 | 4.3 | 8.7 | 0.00 | 0.00 | 0.00 | 94 | 1010.0 |
| 20260506104957 | 53 | 172 | 2.6 | 3.5 | 0.00 | 0.00 | 0.00 | 94 | 1010.0 |
| 20260506104455 | 53 | 148 | 2.6 | 4.3 | 0.00 | 0.00 | 0.00 | 94 | 1009.9 |
| 20260506103953 | 53 | 151 | 2.6 | 4.3 | 0.00 | 0.00 | 0.00 | 94 | 1010.1 |
| 20260506103449 | 53 | 184 | 2.6 | 5.2 | 0.00 | 0.00 | 0.00 | 94 | 1010.1 |
| 20260506102946 | 52 | 170 | 3.5 | 7.0 | 0.00 | 0.00 | 0.00 | 94 | 1009.9 |
| 20260506102444 | 52 | 176 | 4.3 | 4.3 | 0.00 | 0.00 | 0.00 | 94 | 1009.9 |
| 20260506101942 | 52 | 188 | 3.5 | 7.0 | 0.00 | 0.00 | 0.00 | 95 | 1010.2 |
| 20260506101438 | 51 | 182 | 3.5 | 4.3 | 0.00 | 0.00 | 0.00 | 95 | 1009.9 |
| 20260506100935 | 51 | 150 | 2.6 | 6.1 | 0.00 | 0.00 | 0.00 | 94 | 1009.9 |
| 20260506100434 | 52 | 193 | 5.2 | 7.0 | 0.00 | 0.00 | 0.00 | 93 | 1009.9 |
| 20260506095931 | 53 | 196 | 6.1 | 7.8 | 0.00 | 0.00 | 0.00 | 91 | 1010.0 |
| 20260506095430 | 57 | 191 | 4.3 | 5.2 | 0.00 | 0.00 | 0.00 | 86 | 1009.9 |
| 20260506094925 | 59 | 196 | 2.6 | 7.8 | 0.00 | 0.00 | 0.00 | 87 | 1010.1 |
| 20260506094424 | 58 | 201 | 0.0 | 5.2 | 0.00 | 0.00 | 0.00 | 87 | 1010.0 |
| 20260506093921 | 57 | 196 | 3.5 | 4.3 | 0.00 | 0.00 | 0.00 | 88 | 1010.0 |
| 20260506093419 | 57 | 209 | 2.6 | 5.2 | 0.00 | 0.00 | 0.00 | 89 | 1009.9 |
| 20260506092917 | 56 | 198 | 4.3 | 5.2 | 0.00 | 0.00 | 0.00 | 90 | 1009.9 |
| 20260506092415 | 55 | 202 | 3.5 | 4.3 | 0.00 | 0.00 | 0.00 | 90 | 1009.8 |
| 20260506091911 | 55 | 191 | 2.6 | 4.3 | 0.00 | 0.00 | 0.00 | 89 | 1009.8 |
| 20260506091409 | 55 | 180 | 3.5 | 4.3 | 0.00 | 0.00 | 0.00 | 89 | 1009.6 |
| 20260506090906 | 56 | 192 | 2.6 | 3.5 | 0.00 | 0.00 | 0.00 | 89 | 1009.7 |
| 20260506090403 | 55 | 183 | 3.5 | 3.5 | 0.00 | 0.00 | 0.00 | 89 | 1009.9 |
| 20260506085900 | 55 | 128 | 0.0 | 3.5 | 0.00 | 0.00 | 0.00 | 89 | 1009.7 |
| 20260506085356 | 56 | 163 | 3.5 | 5.2 | 0.00 | 0.00 | 0.00 | 87 | 1009.8 |
| 20260506084853 | 56 | 162 | 2.6 | 4.3 | 0.00 | 0.00 | 0.00 | 89 | 1009.7 |
| 20260506084350 | 55 | 180 | 2.6 | 7.0 | 0.00 | 0.00 | 0.00 | 91 | 1009.7 |
| 20260506083846 | 55 | 128 | 2.6 | 2.6 | 0.00 | 0.00 | 0.00 | 89 | 1009.6 |
| 20260506083344 | 55 | 213 | 3.5 | 3.5 | 0.00 | 0.00 | 0.00 | 89 | 1009.6 |
| 20260506082841 | 55 | 156 | 1.7 | 2.6 | 0.00 | 0.00 | 0.00 | 89 | 1009.7 |
| 20260506082338 | 55 | 180 | 0.0 | 2.6 | 0.00 | 0.00 | 0.00 | 89 | 1009.7 |
| 20260506081834 | 55 | 117 | 0.0 | 4.3 | 0.00 | 0.00 | 0.00 | 89 | 1009.7 |